{"data":{"norad_id":41922,"intl_designator":"2017-003F","name":"IRIDIUM 104","alt_names":[],"object_type":"PAYLOAD","status":"ACTIVE","operator":null,"country":"US","launch_date":"2017-01-14","launch_site_code":"AFWTR","launch_vehicle":null,"mission":null,"orbit_class":"UNKNOWN","rcs_meters":2.894,"size_class":null,"mass_kg":null,"dimensions":null,"purposes":["comms"],"wikipedia_slug":null,"has_3d_model":false,"image_url":null,"decayed_at":null,"tle_current":{"epoch":"2026-05-24T21:46:02.296128Z","epoch_age_seconds":76966,"freshness":"FRESH","line1":"1 41922U 17003F   26144.90697102  .00000115  00000+0  34063-4 0  9996","line2":"2 41922  86.3951  98.2131 0002538  89.4406 270.7081 14.34217708489930","mean_motion":14.34217708,"eccentricity":0.0002538,"inclination_deg":86.3951,"raan_deg":98.2131,"arg_perigee_deg":89.4406,"mean_anomaly_deg":270.7081,"bstar":3.4063e-5,"rev_number":48993,"period_min":100.40316696466,"perigee_km":775.85115092526,"apogee_km":779.48343718492,"semimajor_km":7155.8042940551,"source":"CELESTRAK","updated_at":"2026-05-25T13:38:14.764016Z"}}}